{"data":{"norad_id":55372,"intl_designator":"2023-013AT","name":"STARLINK-5568","alt_names":[],"object_type":"PAYLOAD","status":"ACTIVE","operator":null,"country":"US","launch_date":"2023-01-26","launch_site_code":"AFETR","launch_vehicle":null,"mission":null,"orbit_class":"UNKNOWN","rcs_meters":null,"size_class":null,"mass_kg":null,"dimensions":null,"purposes":["comms"],"wikipedia_slug":null,"has_3d_model":false,"image_url":null,"decayed_at":null,"tle_current":{"epoch":"2026-09-20T13:35:45.295008Z","epoch_age_seconds":90882,"freshness":"FRESH","line1":"1 55372U 23013AT  26263.56649647 -.00000002  00000+0  94584-5 0  9994","line2":"2 55372  43.0031 297.8460 0001642 287.0820  72.9852 15.27577362201305","mean_motion":15.27577362,"eccentricity":0.0001642,"inclination_deg":43.0031,"raan_deg":297.846,"arg_perigee_deg":287.082,"mean_anomaly_deg":72.9852,"bstar":9.4584e-6,"rev_number":20130,"period_min":94.266911504545,"perigee_km":481.93038711803,"apogee_km":484.18360322604,"semimajor_km":6861.193995172,"source":"CELESTRAK","updated_at":"2026-09-21T09:00:33.209603Z"}}}